Year,Month,Day,Hour,Minute,Value (Times are PST for temperature in C)
2011,04,21,00,00,4.60
2011,04,21,00,01,4.60
2011,04,21,00,02,4.50
2011,04,21,00,03,4.50
2011,04,21,00,04,4.40
2011,04,21,00,05,4.40
2011,04,21,00,06,4.40
2011,04,21,00,07,4.40
2011,04,21,00,08,4.30
2011,04,21,00,09,4.30
2011,04,21,00,10,4.30
2011,04,21,00,11,4.30
2011,04,21,00,12,4.30
2011,04,21,00,13,4.30
2011,04,21,00,14,4.20
2011,04,21,00,15,4.20
2011,04,21,00,16,4.20
2011,04,21,00,17,4.20
2011,04,21,00,18,4.20
2011,04,21,00,19,4.10
2011,04,21,00,20,4.10
2011,04,21,00,21,4.10
2011,04,21,00,22,4.10
2011,04,21,00,23,4.10
2011,04,21,00,24,4.10
2011,04,21,00,25,4.10
2011,04,21,00,26,4.20
2011,04,21,00,27,4.20
2011,04,21,00,28,4.10
2011,04,21,00,29,4.10
2011,04,21,00,30,4.10
2011,04,21,00,31,4.10
2011,04,21,00,32,4.10
2011,04,21,00,33,4.10
2011,04,21,00,34,4.10
2011,04,21,00,35,4.10
2011,04,21,00,36,4.10
2011,04,21,00,37,4.10
2011,04,21,00,38,4.10
2011,04,21,00,39,4.10
2011,04,21,00,40,4.20
2011,04,21,00,41,4.20
2011,04,21,00,42,4.30
2011,04,21,00,43,4.30
2011,04,21,00,44,4.30
2011,04,21,00,45,4.40
2011,04,21,00,46,4.40
2011,04,21,00,47,4.40
2011,04,21,00,48,4.40
2011,04,21,00,49,4.40
2011,04,21,00,50,4.40
2011,04,21,00,51,4.40
2011,04,21,00,52,4.40
2011,04,21,00,53,4.40
2011,04,21,00,54,4.30
2011,04,21,00,55,4.30
2011,04,21,00,56,4.30
2011,04,21,00,57,4.30
2011,04,21,00,58,4.30
2011,04,21,00,59,4.20
2011,04,21,01,00,4.20
2011,04,21,01,01,4.20
2011,04,21,01,02,4.20
2011,04,21,01,03,4.20
2011,04,21,01,04,4.20
2011,04,21,01,05,4.20
2011,04,21,01,06,4.20
2011,04,21,01,07,4.20
2011,04,21,01,08,4.20
2011,04,21,01,09,4.20
2011,04,21,01,10,4.20
2011,04,21,01,11,4.30
2011,04,21,01,12,4.30
2011,04,21,01,13,4.30
2011,04,21,01,14,4.30
2011,04,21,01,15,4.30
2011,04,21,01,16,4.30
2011,04,21,01,17,4.30
2011,04,21,01,18,4.30
2011,04,21,01,19,4.30
2011,04,21,01,20,4.30
2011,04,21,01,21,4.30
2011,04,21,01,22,4.30
2011,04,21,01,23,4.30
2011,04,21,01,24,4.30
2011,04,21,01,25,4.20
2011,04,21,01,26,4.20
2011,04,21,01,27,4.20
2011,04,21,01,28,4.20
2011,04,21,01,29,4.20
2011,04,21,01,30,4.20
2011,04,21,01,31,4.30
2011,04,21,01,32,4.30
2011,04,21,01,33,4.30
2011,04,21,01,34,4.30
2011,04,21,01,35,4.30
2011,04,21,01,36,4.30
2011,04,21,01,37,4.30
2011,04,21,01,38,4.40
2011,04,21,01,39,4.40
2011,04,21,01,40,4.40
2011,04,21,01,41,4.40
2011,04,21,01,42,4.40
2011,04,21,01,43,4.40
2011,04,21,01,44,4.40
2011,04,21,01,45,4.40
2011,04,21,01,46,4.40
2011,04,21,01,47,4.40
2011,04,21,01,48,4.40
2011,04,21,01,49,4.40
2011,04,21,01,50,4.40
2011,04,21,01,51,4.40
2011,04,21,01,52,4.50
2011,04,21,01,53,4.50
2011,04,21,01,54,4.40
2011,04,21,01,55,4.40
2011,04,21,01,56,4.40
2011,04,21,01,57,4.40
2011,04,21,01,58,4.40
2011,04,21,01,59,4.40
2011,04,21,02,00,4.40
2011,04,21,02,01,4.40
2011,04,21,02,02,4.40
2011,04,21,02,03,4.40
2011,04,21,02,04,4.40
2011,04,21,02,05,4.40
2011,04,21,02,06,4.40
2011,04,21,02,07,4.40
2011,04,21,02,08,4.40
2011,04,21,02,09,4.40
2011,04,21,02,10,4.40
2011,04,21,02,11,4.40
2011,04,21,02,12,4.40
2011,04,21,02,13,4.30
2011,04,21,02,14,4.30
2011,04,21,02,15,4.30
2011,04,21,02,16,4.30
2011,04,21,02,17,4.30
2011,04,21,02,18,4.30
2011,04,21,02,19,4.30
2011,04,21,02,20,4.30
2011,04,21,02,21,4.30
2011,04,21,02,22,4.30
2011,04,21,02,23,4.30
2011,04,21,02,24,4.30
2011,04,21,02,25,4.30
2011,04,21,02,26,4.30
2011,04,21,02,27,4.30
2011,04,21,02,28,4.40
2011,04,21,02,29,4.40
2011,04,21,02,30,4.40
2011,04,21,02,31,4.40
2011,04,21,02,32,4.40
2011,04,21,02,33,4.40
2011,04,21,02,34,4.40
2011,04,21,02,35,4.40
2011,04,21,02,36,4.40
2011,04,21,02,37,4.40
2011,04,21,02,38,4.40
2011,04,21,02,39,4.40
2011,04,21,02,40,4.40
2011,04,21,02,41,4.40
2011,04,21,02,42,4.40
2011,04,21,02,43,4.40
2011,04,21,02,44,4.40
2011,04,21,02,45,4.40
2011,04,21,02,46,4.40
2011,04,21,02,47,4.30
2011,04,21,02,48,4.30
2011,04,21,02,49,4.30
2011,04,21,02,50,4.30
2011,04,21,02,51,4.30
2011,04,21,02,52,4.30
2011,04,21,02,53,4.30
2011,04,21,02,54,4.30
2011,04,21,02,55,4.30
2011,04,21,02,56,4.30
2011,04,21,02,57,4.20
2011,04,21,02,58,4.20
2011,04,21,02,59,4.20
2011,04,21,03,00,4.20
2011,04,21,03,01,4.20
2011,04,21,03,02,4.20
2011,04,21,03,03,4.10
2011,04,21,03,04,4.10
2011,04,21,03,05,4.10
2011,04,21,03,06,4.10
2011,04,21,03,07,4.00
2011,04,21,03,08,4.00
2011,04,21,03,09,4.00
2011,04,21,03,10,3.90
2011,04,21,03,11,3.90
2011,04,21,03,12,3.90
2011,04,21,03,13,3.90
2011,04,21,03,14,3.80
2011,04,21,03,15,3.80
2011,04,21,03,16,3.80
2011,04,21,03,17,3.80
2011,04,21,03,18,3.80
2011,04,21,03,19,3.80
2011,04,21,03,20,3.90
2011,04,21,03,21,3.90
2011,04,21,03,22,3.90
2011,04,21,03,23,3.90
2011,04,21,03,24,3.90
2011,04,21,03,25,3.90
2011,04,21,03,26,3.90
2011,04,21,03,27,3.90
2011,04,21,03,28,3.90
2011,04,21,03,29,3.90
2011,04,21,03,30,3.80
2011,04,21,03,31,3.80
2011,04,21,03,32,3.70
2011,04,21,03,33,3.60
2011,04,21,03,34,3.50
2011,04,21,03,35,3.40
2011,04,21,03,36,3.40
2011,04,21,03,37,3.30
2011,04,21,03,38,3.20
2011,04,21,03,39,3.20
2011,04,21,03,40,3.10
2011,04,21,03,41,3.00
2011,04,21,03,42,3.00
2011,04,21,03,43,2.90
2011,04,21,03,44,2.90
2011,04,21,03,45,2.80
2011,04,21,03,46,2.80
2011,04,21,03,47,2.80
2011,04,21,03,48,2.70
2011,04,21,03,49,2.70
2011,04,21,03,50,2.70
2011,04,21,03,51,2.60
2011,04,21,03,52,2.60
2011,04,21,03,53,2.60
2011,04,21,03,54,2.50
2011,04,21,03,55,2.50
2011,04,21,03,56,2.50
2011,04,21,03,57,2.40
2011,04,21,03,58,2.40
2011,04,21,03,59,2.40
2011,04,21,04,00,2.30
2011,04,21,04,01,2.30
2011,04,21,04,02,2.30
2011,04,21,04,03,2.30
2011,04,21,04,04,2.20
2011,04,21,04,05,2.20
2011,04,21,04,06,2.20
2011,04,21,04,07,2.20
2011,04,21,04,08,2.10
2011,04,21,04,09,2.10
2011,04,21,04,10,2.10
2011,04,21,04,11,2.10
2011,04,21,04,12,2.10
2011,04,21,04,13,2.00
2011,04,21,04,14,2.00
2011,04,21,04,15,2.00
2011,04,21,04,16,2.00
2011,04,21,04,17,1.90
2011,04,21,04,18,1.90
2011,04,21,04,19,1.90
2011,04,21,04,20,1.90
2011,04,21,04,21,1.90
2011,04,21,04,22,1.90
2011,04,21,04,23,1.90
2011,04,21,04,24,1.80
2011,04,21,04,25,1.80
2011,04,21,04,26,1.80
2011,04,21,04,27,1.80
2011,04,21,04,28,1.80
2011,04,21,04,29,1.80
2011,04,21,04,30,1.80
2011,04,21,04,31,1.80
2011,04,21,04,32,1.80
2011,04,21,04,33,1.80
2011,04,21,04,34,1.80
2011,04,21,04,35,1.80
2011,04,21,04,36,1.80
2011,04,21,04,37,1.70
2011,04,21,04,38,1.80
2011,04,21,04,39,1.80
2011,04,21,04,40,1.80
2011,04,21,04,41,1.80
2011,04,21,04,42,1.90
2011,04,21,04,43,1.90
2011,04,21,04,44,2.00
2011,04,21,04,45,2.10
2011,04,21,04,46,2.10
2011,04,21,04,47,2.20
2011,04,21,04,48,2.30
2011,04,21,04,49,2.30
2011,04,21,04,50,2.40
2011,04,21,04,51,2.40
2011,04,21,04,52,2.50
2011,04,21,04,53,2.60
2011,04,21,04,54,2.70
2011,04,21,04,55,2.90
2011,04,21,04,56,3.00
2011,04,21,04,57,3.10
2011,04,21,04,58,3.20
2011,04,21,04,59,3.30
2011,04,21,05,00,3.30
2011,04,21,05,01,3.30
2011,04,21,05,02,3.20
2011,04,21,05,03,3.10
2011,04,21,05,04,3.00
2011,04,21,05,05,2.90
2011,04,21,05,06,2.70
2011,04,21,05,07,2.60
2011,04,21,05,08,2.50
2011,04,21,05,09,2.40
2011,04,21,05,10,2.30
2011,04,21,05,11,2.20
2011,04,21,05,12,2.20
2011,04,21,05,13,2.10
2011,04,21,05,14,2.00
2011,04,21,05,15,2.00
2011,04,21,05,16,1.90
2011,04,21,05,17,1.90
2011,04,21,05,18,1.80
2011,04,21,05,19,1.80
2011,04,21,05,20,1.70
2011,04,21,05,21,1.70
2011,04,21,05,22,1.70
2011,04,21,05,23,1.60
2011,04,21,05,24,1.60
2011,04,21,05,25,1.60
2011,04,21,05,26,1.60
2011,04,21,05,27,1.50
2011,04,21,05,28,1.50
2011,04,21,05,29,1.40
2011,04,21,05,30,1.40
2011,04,21,05,31,1.40
2011,04,21,05,32,1.40
2011,04,21,05,33,1.40
2011,04,21,05,34,1.40
2011,04,21,05,35,1.40
2011,04,21,05,36,1.30
2011,04,21,05,37,1.30
2011,04,21,05,38,1.40
2011,04,21,05,39,1.40
2011,04,21,05,40,1.40
2011,04,21,05,41,1.50
2011,04,21,05,42,1.50
2011,04,21,05,43,1.50
2011,04,21,05,44,1.60
2011,04,21,05,45,1.60
2011,04,21,05,46,1.60
2011,04,21,05,47,1.60
2011,04,21,05,48,1.50
2011,04,21,05,49,1.50
2011,04,21,05,50,1.50
2011,04,21,05,51,1.50
2011,04,21,05,52,1.40
2011,04,21,05,53,1.40
2011,04,21,05,54,1.30
2011,04,21,05,55,1.30
2011,04,21,05,56,1.30
2011,04,21,05,57,1.20
2011,04,21,05,58,1.20
2011,04,21,05,59,1.20
2011,04,21,06,00,1.20
2011,04,21,06,01,1.20
2011,04,21,06,02,1.10
2011,04,21,06,03,1.10
2011,04,21,06,04,1.10
2011,04,21,06,05,1.10
2011,04,21,06,06,1.00
2011,04,21,06,07,1.00
2011,04,21,06,08,1.00
2011,04,21,06,09,0.90
2011,04,21,06,10,0.90
2011,04,21,06,11,0.90
2011,04,21,06,12,0.80
2011,04,21,06,13,0.80
2011,04,21,06,14,0.80
2011,04,21,06,15,0.80
2011,04,21,06,16,0.80
2011,04,21,06,17,0.80
2011,04,21,06,18,0.80
2011,04,21,06,19,0.80
2011,04,21,06,20,0.80
2011,04,21,06,21,0.80
2011,04,21,06,22,0.80
2011,04,21,06,23,0.80
2011,04,21,06,24,0.80
2011,04,21,06,25,0.80
2011,04,21,06,26,0.80
2011,04,21,06,27,0.80
2011,04,21,06,28,0.80
2011,04,21,06,29,0.80
2011,04,21,06,30,0.80
2011,04,21,06,31,0.80
2011,04,21,06,32,0.80
2011,04,21,06,33,0.80
2011,04,21,06,34,0.80
2011,04,21,06,35,0.80
2011,04,21,06,36,0.80
2011,04,21,06,37,0.80
2011,04,21,06,38,0.80
2011,04,21,06,39,0.80
2011,04,21,06,40,0.80
2011,04,21,06,41,0.80
2011,04,21,06,42,0.80
2011,04,21,06,43,0.80
2011,04,21,06,44,0.80
2011,04,21,06,45,0.80
2011,04,21,06,46,0.80
2011,04,21,06,47,0.80
2011,04,21,06,48,0.80
2011,04,21,06,49,0.90
2011,04,21,06,50,0.90
2011,04,21,06,51,0.90
2011,04,21,06,52,0.90
2011,04,21,06,53,0.90
2011,04,21,06,54,1.00
2011,04,21,06,55,1.00
2011,04,21,06,56,1.10
2011,04,21,06,57,1.10
2011,04,21,06,58,1.20
2011,04,21,06,59,1.20
2011,04,21,07,00,1.30
2011,04,21,07,01,1.30
2011,04,21,07,02,1.40
2011,04,21,07,03,1.50
2011,04,21,07,04,1.50
2011,04,21,07,05,1.60
2011,04,21,07,06,1.70
2011,04,21,07,07,1.80
2011,04,21,07,08,1.80
2011,04,21,07,09,1.90
2011,04,21,07,10,2.00
2011,04,21,07,11,2.10
2011,04,21,07,12,2.10
2011,04,21,07,13,2.20
2011,04,21,07,14,2.30
2011,04,21,07,15,2.30
2011,04,21,07,16,2.40
2011,04,21,07,17,2.40
2011,04,21,07,18,2.40
2011,04,21,07,19,2.50
2011,04,21,07,20,2.50
2011,04,21,07,21,2.60
2011,04,21,07,22,2.60
2011,04,21,07,23,2.70
2011,04,21,07,24,2.80
2011,04,21,07,25,2.90
2011,04,21,07,26,3.00
2011,04,21,07,27,3.00
2011,04,21,07,28,3.10
2011,04,21,07,29,3.20
2011,04,21,07,30,3.30
2011,04,21,07,31,3.50
2011,04,21,07,32,3.70
2011,04,21,07,33,3.90
2011,04,21,07,34,4.10
2011,04,21,07,35,4.30
2011,04,21,07,36,4.40
2011,04,21,07,37,4.60
2011,04,21,07,38,4.80
2011,04,21,07,39,5.00
2011,04,21,07,40,5.10
2011,04,21,07,41,5.30
2011,04,21,07,42,5.40
2011,04,21,07,43,5.50
2011,04,21,07,44,5.60
2011,04,21,07,45,5.70
2011,04,21,07,46,5.80
2011,04,21,07,47,5.90
2011,04,21,07,48,5.90
2011,04,21,07,49,6.00
2011,04,21,07,50,6.10
2011,04,21,07,51,6.20
2011,04,21,07,52,6.20
2011,04,21,07,53,6.30
2011,04,21,07,54,6.30
2011,04,21,07,55,6.30
2011,04,21,07,56,6.30
2011,04,21,07,57,6.40
2011,04,21,07,58,6.40
2011,04,21,07,59,6.40
2011,04,21,08,00,6.40
2011,04,21,08,01,6.40
2011,04,21,08,02,6.40
2011,04,21,08,03,6.40
2011,04,21,08,04,6.40
2011,04,21,08,05,6.40
2011,04,21,08,06,6.40
2011,04,21,08,07,6.40
2011,04,21,08,08,6.40
2011,04,21,08,09,6.50
2011,04,21,08,10,6.50
2011,04,21,08,11,6.50
2011,04,21,08,12,6.50
2011,04,21,08,13,6.60
2011,04,21,08,14,6.60
2011,04,21,08,15,6.60
2011,04,21,08,16,6.70
2011,04,21,08,17,6.70
2011,04,21,08,18,6.70
2011,04,21,08,19,6.70
2011,04,21,08,20,6.80
2011,04,21,08,21,6.80
2011,04,21,08,22,6.80
2011,04,21,08,23,6.80
2011,04,21,08,24,6.80
2011,04,21,08,25,6.80
2011,04,21,08,26,6.80
2011,04,21,08,27,6.80
2011,04,21,08,28,6.90
2011,04,21,08,29,6.90
2011,04,21,08,30,7.00
2011,04,21,08,31,7.00
2011,04,21,08,32,7.00
2011,04,21,08,33,7.10
2011,04,21,08,34,7.10
2011,04,21,08,35,7.20
2011,04,21,08,36,7.20
2011,04,21,08,37,7.20
2011,04,21,08,38,7.20
2011,04,21,08,39,7.20
2011,04,21,08,40,7.20
2011,04,21,08,41,7.20
2011,04,21,08,42,7.10
2011,04,21,08,43,7.20
2011,04,21,08,44,7.10
2011,04,21,08,45,7.10
2011,04,21,08,46,7.10
2011,04,21,08,47,7.10
2011,04,21,08,48,7.10
2011,04,21,08,49,7.10
2011,04,21,08,50,7.20
2011,04,21,08,51,7.20
2011,04,21,08,52,7.20
2011,04,21,08,53,7.20
2011,04,21,08,54,7.20
2011,04,21,08,55,7.20
2011,04,21,08,56,7.30
2011,04,21,08,57,7.30
2011,04,21,08,58,7.30
2011,04,21,08,59,7.30
2011,04,21,09,00,7.30
2011,04,21,09,01,7.40
2011,04,21,09,02,7.40
2011,04,21,09,03,7.40
2011,04,21,09,04,7.40
2011,04,21,09,05,7.40
2011,04,21,09,06,7.50
2011,04,21,09,07,7.40
2011,04,21,09,08,7.40
2011,04,21,09,09,7.40
2011,04,21,09,10,7.40
2011,04,21,09,11,7.50
2011,04,21,09,12,7.50
2011,04,21,09,13,7.50
2011,04,21,09,14,7.60
2011,04,21,09,15,7.60
2011,04,21,09,16,7.70
2011,04,21,09,17,7.70
2011,04,21,09,18,7.80
2011,04,21,09,19,7.80
2011,04,21,09,20,7.70
2011,04,21,09,21,7.70
2011,04,21,09,22,7.70
2011,04,21,09,23,7.70
2011,04,21,09,24,7.70
2011,04,21,09,25,7.70
2011,04,21,09,26,7.70
2011,04,21,09,27,7.70
2011,04,21,09,28,7.70
2011,04,21,09,29,7.80
2011,04,21,09,30,7.80
2011,04,21,09,31,7.90
2011,04,21,09,32,7.90
2011,04,21,09,33,7.90
2011,04,21,09,34,7.90
2011,04,21,09,35,7.90
2011,04,21,09,36,7.90
2011,04,21,09,37,7.90
2011,04,21,09,38,7.90
2011,04,21,09,39,7.90
2011,04,21,09,40,7.90
2011,04,21,09,41,7.90
2011,04,21,09,42,7.90
2011,04,21,09,43,7.90
2011,04,21,09,44,8.00
2011,04,21,09,45,8.00
2011,04,21,09,46,8.00
2011,04,21,09,47,8.00
2011,04,21,09,48,7.90
2011,04,21,09,49,7.90
2011,04,21,09,50,7.90
2011,04,21,09,51,7.90
2011,04,21,09,52,7.90
2011,04,21,09,53,7.90
2011,04,21,09,54,7.80
2011,04,21,09,55,7.90
2011,04,21,09,56,8.00
2011,04,21,09,57,8.00
2011,04,21,09,58,8.00
2011,04,21,09,59,8.00
2011,04,21,10,00,8.00
2011,04,21,10,01,8.00
2011,04,21,10,02,8.00
2011,04,21,10,03,8.00
2011,04,21,10,04,8.10
2011,04,21,10,05,8.10
2011,04,21,10,06,8.20
2011,04,21,10,07,8.20
2011,04,21,10,08,8.30
2011,04,21,10,09,8.40
2011,04,21,10,10,8.40
2011,04,21,10,11,8.50
2011,04,21,10,12,8.60
2011,04,21,10,13,8.80
2011,04,21,10,14,8.80
2011,04,21,10,15,8.90
2011,04,21,10,16,8.90
2011,04,21,10,17,9.00
2011,04,21,10,18,9.10
2011,04,21,10,19,9.10
2011,04,21,10,20,9.00
2011,04,21,10,21,9.00
2011,04,21,10,22,9.00
2011,04,21,10,23,8.90
2011,04,21,10,24,8.70
2011,04,21,10,25,8.60
2011,04,21,10,26,8.60
2011,04,21,10,27,8.50
2011,04,21,10,28,8.40
2011,04,21,10,29,8.40
2011,04,21,10,30,8.30
2011,04,21,10,31,8.30
2011,04,21,10,32,8.20
2011,04,21,10,33,8.10
2011,04,21,10,34,8.10
2011,04,21,10,35,8.10
2011,04,21,10,36,8.20
2011,04,21,10,37,8.30
2011,04,21,10,38,8.40
2011,04,21,10,39,8.60
2011,04,21,10,40,8.70
2011,04,21,10,41,8.80
2011,04,21,10,42,8.80
2011,04,21,10,43,8.80
2011,04,21,10,44,8.80
2011,04,21,10,45,8.90
2011,04,21,10,46,9.00
2011,04,21,10,47,9.10
2011,04,21,10,48,9.10
2011,04,21,10,49,9.10
2011,04,21,10,50,9.10
2011,04,21,10,51,9.10
2011,04,21,10,52,9.10
2011,04,21,10,53,9.00
2011,04,21,10,54,8.90
2011,04,21,10,55,8.80
2011,04,21,10,56,8.80
2011,04,21,10,57,8.90
2011,04,21,10,58,8.90
2011,04,21,10,59,9.00
2011,04,21,11,00,9.00
2011,04,21,11,01,9.00
2011,04,21,11,02,9.00
2011,04,21,11,03,9.00
2011,04,21,11,04,8.90
2011,04,21,11,05,8.90
2011,04,21,11,06,8.90
2011,04,21,11,07,8.90
2011,04,21,11,08,8.90
2011,04,21,11,09,8.90
2011,04,21,11,10,8.90
2011,04,21,11,11,8.90
2011,04,21,11,12,8.90
2011,04,21,11,13,9.00
2011,04,21,11,14,9.00
2011,04,21,11,15,9.10
2011,04,21,11,16,9.20
2011,04,21,11,17,9.20
2011,04,21,11,18,9.30
2011,04,21,11,19,9.30
2011,04,21,11,20,9.30
2011,04,21,11,21,9.20
2011,04,21,11,22,9.10
2011,04,21,11,23,9.00
2011,04,21,11,24,8.90
2011,04,21,11,25,8.80
2011,04,21,11,26,8.80
2011,04,21,11,27,8.80
2011,04,21,11,28,8.80
2011,04,21,11,29,8.80
2011,04,21,11,30,8.90
2011,04,21,11,31,8.80
2011,04,21,11,32,8.80
2011,04,21,11,33,8.80
2011,04,21,11,34,8.70
2011,04,21,11,35,8.70
2011,04,21,11,36,8.70
2011,04,21,11,37,8.70
2011,04,21,11,38,8.80
2011,04,21,11,39,8.80
2011,04,21,11,40,8.80
2011,04,21,11,41,8.80
2011,04,21,11,42,8.80
2011,04,21,11,43,8.80
2011,04,21,11,44,8.70
2011,04,21,11,45,8.70
2011,04,21,11,46,8.70
2011,04,21,11,47,8.70
2011,04,21,11,48,8.80
2011,04,21,11,49,8.80
2011,04,21,11,50,8.80
2011,04,21,11,51,8.90
2011,04,21,11,52,9.00
2011,04,21,11,53,9.00
2011,04,21,11,54,9.10
2011,04,21,11,55,9.20
2011,04,21,11,56,9.20
2011,04,21,11,57,9.20
2011,04,21,11,58,9.30
2011,04,21,11,59,9.40
2011,04,21,12,00,9.40
2011,04,21,12,01,9.50
2011,04,21,12,02,9.70
2011,04,21,12,03,9.80
2011,04,21,12,04,10.00
2011,04,21,12,05,10.10
2011,04,21,12,06,10.20
2011,04,21,12,07,10.20
2011,04,21,12,08,10.20
2011,04,21,12,09,10.10
2011,04,21,12,10,10.00
2011,04,21,12,11,9.90
2011,04,21,12,12,9.80
2011,04,21,12,13,9.80
2011,04,21,12,14,9.80
2011,04,21,12,15,9.80
2011,04,21,12,16,9.90
2011,04,21,12,17,9.90
2011,04,21,12,18,10.00
2011,04,21,12,19,10.10
2011,04,21,12,20,10.20
2011,04,21,12,21,10.30
2011,04,21,12,22,10.40
2011,04,21,12,23,10.40
2011,04,21,12,24,10.40
2011,04,21,12,25,10.40
2011,04,21,12,26,10.40
2011,04,21,12,27,10.30
2011,04,21,12,28,10.30
2011,04,21,12,29,10.40
2011,04,21,12,30,10.40
2011,04,21,12,31,10.60
2011,04,21,12,32,10.70
2011,04,21,12,33,10.80
2011,04,21,12,34,10.90
2011,04,21,12,35,10.90
2011,04,21,12,36,10.90
2011,04,21,12,37,10.80
2011,04,21,12,38,10.90
2011,04,21,12,39,10.90
2011,04,21,12,40,10.90
2011,04,21,12,41,10.90
2011,04,21,12,42,11.00
2011,04,21,12,43,11.10
2011,04,21,12,44,11.10
2011,04,21,12,45,11.10
2011,04,21,12,46,11.20
2011,04,21,12,47,11.20
2011,04,21,12,48,11.20
2011,04,21,12,49,11.10
2011,04,21,12,50,11.10
2011,04,21,12,51,11.00
2011,04,21,12,52,10.90
2011,04,21,12,53,10.80
2011,04,21,12,54,10.70
2011,04,21,12,55,10.60
2011,04,21,12,56,10.60
2011,04,21,12,57,10.60
2011,04,21,12,58,10.70
2011,04,21,12,59,10.70
2011,04,21,13,00,10.60
2011,04,21,13,01,10.60
2011,04,21,13,02,10.50
2011,04,21,13,03,10.50
2011,04,21,13,04,10.60
2011,04,21,13,05,10.60
2011,04,21,13,06,10.60
2011,04,21,13,07,10.60
2011,04,21,13,08,10.70
2011,04,21,13,09,10.70
2011,04,21,13,10,10.80
2011,04,21,13,11,10.80
2011,04,21,13,12,11.00
2011,04,21,13,13,11.10
2011,04,21,13,14,11.10
2011,04,21,13,15,11.10
2011,04,21,13,16,11.00
2011,04,21,13,17,11.00
2011,04,21,13,18,11.10
2011,04,21,13,19,11.20
2011,04,21,13,20,11.20
2011,04,21,13,21,11.20
2011,04,21,13,22,11.20
2011,04,21,13,23,11.10
2011,04,21,13,24,11.00
2011,04,21,13,25,10.90
2011,04,21,13,26,10.90
2011,04,21,13,27,11.00
2011,04,21,13,28,11.00
2011,04,21,13,29,11.10
2011,04,21,13,30,11.00
2011,04,21,13,31,11.00
2011,04,21,13,32,11.00
2011,04,21,13,33,11.00
2011,04,21,13,34,11.10
2011,04,21,13,35,11.10
2011,04,21,13,36,11.00
2011,04,21,13,37,10.90
2011,04,21,13,38,10.90
2011,04,21,13,39,11.00
2011,04,21,13,40,11.00
2011,04,21,13,41,10.90
2011,04,21,13,42,10.90
2011,04,21,13,43,10.90
2011,04,21,13,44,10.90
2011,04,21,13,45,10.90
2011,04,21,13,46,11.00
2011,04,21,13,47,11.00
2011,04,21,13,48,11.10
2011,04,21,13,49,11.20
2011,04,21,13,50,11.20
2011,04,21,13,51,11.20
2011,04,21,13,52,11.20
2011,04,21,13,53,11.10
2011,04,21,13,54,11.20
2011,04,21,13,55,11.30
2011,04,21,13,56,11.40
2011,04,21,13,57,11.60
2011,04,21,13,58,11.70
2011,04,21,13,59,11.80
2011,04,21,14,00,11.80
2011,04,21,14,01,11.80
2011,04,21,14,02,11.80
2011,04,21,14,03,11.80
2011,04,21,14,04,11.70
2011,04,21,14,05,11.60
2011,04,21,14,06,11.70
2011,04,21,14,07,11.70
2011,04,21,14,08,11.70
2011,04,21,14,09,11.80
2011,04,21,14,10,11.90
2011,04,21,14,11,11.90
2011,04,21,14,12,11.90
2011,04,21,14,13,11.80
2011,04,21,14,14,11.60
2011,04,21,14,15,11.50
2011,04,21,14,16,11.40
2011,04,21,14,17,11.40
2011,04,21,14,18,11.40
2011,04,21,14,19,11.30
2011,04,21,14,20,11.30
2011,04,21,14,21,11.20
2011,04,21,14,22,11.30
2011,04,21,14,23,11.40
2011,04,21,14,24,11.60
2011,04,21,14,25,11.80
2011,04,21,14,26,11.90
2011,04,21,14,27,12.00
2011,04,21,14,28,12.00
2011,04,21,14,29,12.00
2011,04,21,14,30,11.90
2011,04,21,14,31,11.70
2011,04,21,14,32,11.60
2011,04,21,14,33,11.50
2011,04,21,14,34,11.40
2011,04,21,14,35,11.30
2011,04,21,14,36,11.20
2011,04,21,14,37,11.00
2011,04,21,14,38,10.80
2011,04,21,14,39,10.80
2011,04,21,14,40,10.80
2011,04,21,14,41,10.90
2011,04,21,14,42,10.90
2011,04,21,14,43,10.90
2011,04,21,14,44,10.90
2011,04,21,14,45,11.00
2011,04,21,14,46,11.00
2011,04,21,14,47,11.00
2011,04,21,14,48,11.10
2011,04,21,14,49,11.20
2011,04,21,14,50,11.20
2011,04,21,14,51,11.30
2011,04,21,14,52,11.40
2011,04,21,14,53,11.40
2011,04,21,14,54,11.40
2011,04,21,14,55,11.30
2011,04,21,14,56,11.30
2011,04,21,14,57,11.30
2011,04,21,14,58,11.40
2011,04,21,14,59,11.40
2011,04,21,15,00,11.30
2011,04,21,15,01,11.10
2011,04,21,15,02,10.90
2011,04,21,15,03,10.70
2011,04,21,15,04,10.60
2011,04,21,15,05,10.50
2011,04,21,15,06,10.50
2011,04,21,15,07,10.40
2011,04,21,15,08,10.40
2011,04,21,15,09,10.40
2011,04,21,15,10,10.50
2011,04,21,15,11,10.50
2011,04,21,15,12,10.60
2011,04,21,15,13,10.60
2011,04,21,15,14,10.60
2011,04,21,15,15,10.50
2011,04,21,15,16,10.50
2011,04,21,15,17,10.40
2011,04,21,15,18,10.40
2011,04,21,15,19,10.30
2011,04,21,15,20,10.30
2011,04,21,15,21,10.30
2011,04,21,15,22,10.30
2011,04,21,15,23,10.30
2011,04,21,15,24,10.30
2011,04,21,15,25,10.30
2011,04,21,15,26,10.40
2011,04,21,15,27,10.40
2011,04,21,15,28,10.50
2011,04,21,15,29,10.50
2011,04,21,15,30,10.60
2011,04,21,15,31,10.70
2011,04,21,15,32,10.70
2011,04,21,15,33,10.80
2011,04,21,15,34,10.80
2011,04,21,15,35,10.90
2011,04,21,15,36,10.90
2011,04,21,15,37,10.90
2011,04,21,15,38,10.90
2011,04,21,15,39,10.80
2011,04,21,15,40,10.80
2011,04,21,15,41,10.80
2011,04,21,15,42,10.80
2011,04,21,15,43,10.80
2011,04,21,15,44,10.80
2011,04,21,15,45,10.80
2011,04,21,15,46,10.80
2011,04,21,15,47,10.80
2011,04,21,15,48,10.80
2011,04,21,15,49,10.80
2011,04,21,15,50,10.80
2011,04,21,15,51,10.80
2011,04,21,15,52,10.70
2011,04,21,15,53,10.70
2011,04,21,15,54,10.70
2011,04,21,15,55,10.80
2011,04,21,15,56,10.80
2011,04,21,15,57,10.90
2011,04,21,15,58,11.00
2011,04,21,15,59,11.00
2011,04,21,16,00,10.90
2011,04,21,16,01,10.80
2011,04,21,16,02,10.80
2011,04,21,16,03,10.70
2011,04,21,16,04,10.70
2011,04,21,16,05,10.60
2011,04,21,16,06,10.60
2011,04,21,16,07,10.60
2011,04,21,16,08,10.60
2011,04,21,16,09,10.70
2011,04,21,16,10,10.70
2011,04,21,16,11,10.70
2011,04,21,16,12,10.70
2011,04,21,16,13,10.70
2011,04,21,16,14,10.70
2011,04,21,16,15,10.60
2011,04,21,16,16,10.70
2011,04,21,16,17,10.70
2011,04,21,16,18,10.70
2011,04,21,16,19,10.60
2011,04,21,16,20,10.50
2011,04,21,16,21,10.50
2011,04,21,16,22,10.50
2011,04,21,16,23,10.50
2011,04,21,16,24,10.50
2011,04,21,16,25,10.50
2011,04,21,16,26,10.50
2011,04,21,16,27,10.50
2011,04,21,16,28,10.40
2011,04,21,16,29,10.40
2011,04,21,16,30,10.40
2011,04,21,16,31,10.40
2011,04,21,16,32,10.40
2011,04,21,16,33,10.40
2011,04,21,16,34,10.40
2011,04,21,16,35,10.40
2011,04,21,16,36,10.40
2011,04,21,16,37,10.30
2011,04,21,16,38,10.30
2011,04,21,16,39,10.40
2011,04,21,16,40,10.40
2011,04,21,16,41,10.30
2011,04,21,16,42,10.30
2011,04,21,16,43,10.30
2011,04,21,16,44,10.30
2011,04,21,16,45,10.30
2011,04,21,16,46,10.30
2011,04,21,16,47,10.30
2011,04,21,16,48,10.20
2011,04,21,16,49,10.20
2011,04,21,16,50,10.30
2011,04,21,16,51,10.30
2011,04,21,16,52,10.40
2011,04,21,16,53,10.40
2011,04,21,16,54,10.40
2011,04,21,16,55,10.40
2011,04,21,16,56,10.40
2011,04,21,16,57,10.50
2011,04,21,16,58,10.50
2011,04,21,16,59,10.50
2011,04,21,17,00,10.40
2011,04,21,17,01,10.30
2011,04,21,17,02,10.30
2011,04,21,17,03,10.30
2011,04,21,17,04,10.30
2011,04,21,17,05,10.30
2011,04,21,17,06,10.30
2011,04,21,17,07,10.40
2011,04,21,17,08,10.40
2011,04,21,17,09,10.40
2011,04,21,17,10,10.30
2011,04,21,17,11,10.30
2011,04,21,17,12,10.30
2011,04,21,17,13,10.30
2011,04,21,17,14,10.30
2011,04,21,17,15,10.30
2011,04,21,17,16,10.30
2011,04,21,17,17,10.30
2011,04,21,17,18,10.30
2011,04,21,17,19,10.30
2011,04,21,17,20,10.30
2011,04,21,17,21,10.20
2011,04,21,17,22,10.20
2011,04,21,17,23,10.20
2011,04,21,17,24,10.20
2011,04,21,17,25,10.20
2011,04,21,17,26,10.10
2011,04,21,17,27,10.10
2011,04,21,17,28,10.10
2011,04,21,17,29,10.10
2011,04,21,17,30,10.10
2011,04,21,17,31,10.10
2011,04,21,17,32,10.00
2011,04,21,17,33,10.10
2011,04,21,17,34,10.10
2011,04,21,17,35,10.20
2011,04,21,17,36,10.20
2011,04,21,17,37,10.20
2011,04,21,17,38,10.20
2011,04,21,17,39,10.20
2011,04,21,17,40,10.20
2011,04,21,17,41,10.20
2011,04,21,17,42,10.20
2011,04,21,17,43,10.20
2011,04,21,17,44,10.10
2011,04,21,17,45,10.10
2011,04,21,17,46,10.20
2011,04,21,17,47,10.30
2011,04,21,17,48,10.30
2011,04,21,17,49,10.30
2011,04,21,17,50,10.30
2011,04,21,17,51,10.20